This is the latest recevied weather packets stored in our database for station/object AE0NK. If no packets are shown the sender has not sent any weather packets the latest 10 day(s).
| Time | Temp. | Humidity | Pressure | Rain* | Wind** | Luminosity | Snow |
|---|---|---|---|---|---|---|---|
| 1777507095 | 13.89° C | 33% | 1016.9 hPa | 0 mm | - | 23 W/m² | - |
| 1777506794 | 13.89° C | 33% | 1016.8 hPa | 0 mm | - | 39 W/m² | - |
| 1777506493 | 13.89° C | 33% | 1016.8 hPa | 0 mm | - | 51 W/m² | - |
| 1777506206 | 13.89° C | 33% | 1016.8 hPa | 0 mm | - | 62 W/m² | - |
| 1777505905 | 13.89° C | 30% | 1016.8 hPa | 0 mm | - | 86 W/m² | - |
| 1777505604 | 13.89° C | 32% | 1016.8 hPa | 0 mm | - | 95 W/m² | - |
| 1777505302 | 13.89° C | 32% | 1016.8 hPa | 0 mm | - | 72 W/m² | - |
| 1777505001 | 13.89° C | 31% | 1016.8 hPa | 0 mm | - | 69 W/m² | - |
| 1777504701 | 13.89° C | 30% | 1016.7 hPa | 0 mm | - | 40 W/m² | - |
| 1777504398 | 14.44° C | 30% | 1016.7 hPa | 0 mm | - | 69 W/m² | - |
| 1777504096 | 14.44° C | 32% | 1016.8 hPa | 0 mm | - | 84 W/m² | - |
| 1777503794 | 13.89° C | 33% | 1016.8 hPa | 0 mm | - | 84 W/m² | - |
| 1777503510 | 13.89° C | 32% | 1016.8 hPa | 0 mm | - | 100 W/m² | - |
| 1777503205 | 13.89° C | 31% | 1016.7 hPa | 0 mm | - | 51 W/m² | - |
| 1777502904 | 13.89° C | 32% | 1016.8 hPa | 0 mm | - | 236 W/m² | - |
| 1777502602 | 14.44° C | 29% | 1016.8 hPa | 0 mm | - | 104 W/m² | - |
| 1777502301 | 14.44° C | 29% | 1016.8 hPa | 0 mm | - | 153 W/m² | - |
| 1777501999 | 14.44° C | 30% | 1016.7 hPa | 0 mm | - | 155 W/m² | - |
| 1777501697 | 15° C | 34% | 1016.7 hPa | 0 mm | - | 120 W/m² | - |
| 1777501395 | 15° C | 31% | 1016.7 hPa | 0 mm | - | 84 W/m² | - |
| 1777501096 | 15° C | 33% | 1016.7 hPa | 0 mm | - | 132 W/m² | - |
| 1777500795 | 15° C | 33% | 1016.6 hPa | 0 mm | - | 204 W/m² | - |
| 1777500494 | 14.44° C | 32% | 1016.7 hPa | 0 mm | - | 163 W/m² | - |
| 1777500193 | 14.44° C | 27% | 1016.8 hPa | 0 mm | - | 376 W/m² | - |
| 1777499907 | 15° C | 30% | 1016.6 hPa | 0 mm | - | 348 W/m² | - |
* Rain latest hour (hover to see other rain measurements)
** Current wind speed in m/s (hover to see current wind gust speed)